Location: Hylvaty SDH
(49.9612°N, 16.4057°E)
Time: 00:44:50
(UTC+01:00)

Transit 4A - All Passes

Search period start: 26 January 2020 00:00
Search period end: 05 February 2020 00:00
Orbit: 872 x 973 km, 66.8° (Epoch: 25 January)

Date Brightness Start Highest point End Pass type
(mag) Time Alt. Az. Time Alt. Az. Time Alt. Az.
26 Jan - 05:31:30 10° S 05:36:43 32° ESE 05:41:51 10° NE visible
26 Jan - 07:16:52 10° SW 07:22:47 59° NW 07:28:36 10° NNE daylight
26 Jan - 09:05:55 10° WNW 09:10:21 21° NNW 09:14:44 10° NNE daylight
26 Jan - 10:55:42 10° NNW 10:59:01 15° N 11:02:20 10° NE daylight
26 Jan - 12:42:42 10° NNW 12:47:32 26° NNE 12:52:19 10° E daylight
26 Jan - 14:28:51 10° NW 14:34:43 83° NE 14:40:35 10° SE daylight
26 Jan - 16:16:14 10° WNW 16:20:23 20° WSW 16:24:32 10° SSW daylight
27 Jan - 05:40:12 10° S 05:45:52 44° ESE 05:51:26 10° NE visible
27 Jan - 07:26:32 10° WSW 07:32:15 45° NW 07:37:53 10° NNE daylight
27 Jan - 09:16:06 10° WNW 09:20:08 18° NNW 09:24:07 10° NNE daylight
27 Jan - 11:05:24 10° NNW 11:08:53 16° N 11:12:22 10° NE daylight
27 Jan - 12:52:00 10° NNW 12:57:10 31° NE 13:02:20 10° E daylight
27 Jan - 14:38:14 10° NW 14:44:02 73° WSW 14:49:52 10° SSE daylight
27 Jan - 16:26:35 10° WNW 16:29:23 14° WSW 16:32:10 10° SW daylight
28 Jan - 04:07:58 10° ESE 04:09:52 12° E 04:11:46 10° E visible
28 Jan - 05:49:11 10° SSW 05:55:06 63° ESE 06:00:54 10° NE visible
28 Jan - 07:36:23 10° WSW 07:41:48 35° NW 07:47:10 10° NNE daylight
28 Jan - 09:26:18 10° NW 09:29:57 17° NNW 09:33:36 10° NNE daylight
28 Jan - 11:14:57 10° NNW 11:18:44 17° NNE 11:22:31 10° NE daylight
28 Jan - 13:01:16 10° NNW 13:06:45 39° NE 13:12:13 10° ESE daylight
28 Jan - 14:47:39 10° NW 14:53:18 52° WSW 14:58:56 10° SSE daylight
29 Jan - 04:15:02 10° SE 04:18:50 18° ESE 04:22:36 10° ENE visible
29 Jan - 05:58:22 10° SSW 06:04:23 85° SE 06:10:18 10° NE visible
29 Jan - 07:46:20 10° W 07:51:25 28° NNW 07:56:27 10° NNE daylight
29 Jan - 09:36:24 10° NW 09:39:49 15° N 09:43:12 10° NNE daylight
29 Jan - 11:24:23 10° NNW 11:28:32 20° NNE 11:32:41 10° ENE daylight
29 Jan - 13:10:34 10° NNW 13:16:16 52° NE 13:21:58 10° ESE daylight
29 Jan - 14:57:11 10° NW 15:02:28 36° WSW 15:07:45 10° S daylight
30 Jan - 04:23:06 10° SSE 04:27:53 25° ESE 04:32:36 10° NE visible
30 Jan - 06:07:45 10° SW 06:13:45 72° NW 06:19:37 10° NE visible
30 Jan - 07:56:26 10° W 08:01:06 23° NNW 08:05:45 10° NNE daylight
30 Jan - 09:46:24 10° NW 09:49:42 15° N 09:52:58 10° NE daylight
30 Jan - 11:33:44 10° NNW 11:38:18 23° NNE 11:42:51 10° ENE daylight
30 Jan - 13:19:52 10° NNW 13:25:43 69° NE 13:31:33 10° SE daylight
30 Jan - 15:06:53 10° NW 15:11:34 26° WSW 15:16:17 10° SSW daylight
31 Jan - 04:31:36 10° S 04:37:00 36° ESE 04:42:18 10° NE visible
31 Jan - 06:17:20 10° WSW 06:23:10 54° NW 06:28:56 10° NNE visible
31 Jan - 08:06:35 10° WNW 08:10:51 20° NNW 08:15:06 10° NNE daylight
31 Jan - 09:56:13 10° NNW 09:59:34 15° N 10:02:55 10° NE daylight
31 Jan - 11:43:03 10° NNW 11:47:59 27° NNE 11:52:56 10° E daylight
31 Jan - 13:29:13 10° NW 13:35:04 88° SW 13:40:57 10° SSE daylight
31 Jan - 15:16:52 10° WNW 15:20:37 18° WSW 15:24:23 10° SW daylight
01 Feb - 04:40:25 10° S 04:46:10 50° ESE 04:51:50 10° NE visible
01 Feb - 06:27:05 10° WSW 06:32:41 41° NW 06:38:13 10° NNE visible
01 Feb - 08:16:47 10° WNW 08:20:39 18° NNW 08:24:30 10° NNE daylight
01 Feb - 10:05:51 10° NNW 10:09:26 16° NNE 10:13:00 10° NE daylight
01 Feb - 11:52:20 10° NNW 11:57:37 34° NE 12:02:54 10° ESE daylight
01 Feb - 13:38:36 10° NW 13:44:22 64° WSW 13:50:09 10° SSE daylight
01 Feb - 15:27:37 10° W 15:29:35 12° W 15:31:33 10° WSW daylight
02 Feb - 03:07:18 10° SE 03:10:05 14° ESE 03:12:50 10° ENE visible
02 Feb - 04:49:28 10° SSW 04:55:25 70° ESE 05:01:16 10° NE visible
02 Feb - 06:36:58 10° W 06:42:15 32° NW 06:47:30 10° NNE visible
02 Feb - 08:26:57 10° NW 08:30:29 16° N 08:34:01 10° NNE daylight
02 Feb - 10:15:21 10° NNW 10:19:15 18° NNE 10:23:10 10° ENE daylight
02 Feb - 12:01:36 10° NNW 12:07:11 43° NE 12:12:44 10° ESE daylight
02 Feb - 13:48:04 10° NW 13:53:35 46° WSW 13:59:08 10° S daylight
03 Feb - 03:14:53 10° SSE 03:19:04 20° ESE 03:23:13 10° ENE visible
03 Feb - 04:58:44 10° SW 05:04:44 86° NW 05:10:38 10° NE visible
03 Feb - 06:46:58 10° W 06:51:53 26° NNW 06:56:47 10° NNE visible
03 Feb - 08:37:01 10° NW 08:40:21 15° N 08:43:41 10° NNE daylight
03 Feb - 10:24:45 10° NNW 10:29:03 21° NNE 10:33:21 10° ENE daylight
03 Feb - 12:10:54 10° NNW 12:16:39 57° NE 12:22:25 10° SE daylight
03 Feb - 13:57:39 10° NW 14:02:44 32° WSW 14:07:52 10° S daylight
04 Feb - 03:23:08 10° SSE 03:28:09 29° ESE 03:33:06 10° NE visible
04 Feb - 05:08:12 10° SW 05:14:07 64° NW 05:19:58 10° NNE visible
04 Feb - 06:57:04 10° WNW 07:01:35 22° NNW 07:06:06 10° NNE daylight
04 Feb - 08:46:57 10° NNW 08:50:14 15° N 08:53:32 10° NE daylight
04 Feb - 10:34:05 10° NNW 10:38:47 24° NNE 10:43:29 10° E daylight
04 Feb - 12:20:13 10° NW 12:26:04 77° NE 12:31:56 10° SE daylight
04 Feb - 14:07:25 10° WNW 14:11:49 23° WSW 14:16:16 10° SSW daylight
